Theta_e
334 336 344 352 345 348 350 346 340 342 337 329 331 336 341 348 347 336 346 345 346 339 347 348 348 347 347 347 348 346 347 346 346 345 344 343 342 341 340 340 339 340 341 344 341 340 341 342 342
332 341 341 344 349 348 342 345 346 342 337 327 336 340 345 353 347 343 344 345 343 342 347 348 347 346 347 346 346 344 344 345 343 341 341 339 337 337 337 336 337 339 342 343 342 341 341 341 340
331 341 346 348 348 348 342 339 339 339 332 332 331 334 344 349 344 345 344 342 337 346 343 346 347 344 343 343 343 342 342 342 340 337 336 337 336 337 336 336 337 340 343 342 342 340 340 337 341
335 340 340 352 352 347 340 335 339 342 339 337 331 337 338 342 343 343 343 339 340 344 344 346 345 341 341 339 338 337 338 337 336 337 337 337 340 338 338 339 340 339 341 341 340 339 338 334 338
332 340 348 351 352 347 342 338 336 344 345 341 335 338 342 341 341 342 339 337 340 345 344 345 345 341 338 336 336 336 336 336 337 338 338 343 341 339 338 338 339 339 339 339 338 336 335 330 333
331 336 350 352 347 344 340 336 340 346 343 342 343 338 340 340 341 340 339 337 335 343 344 343 342 338 336 337 337 337 338 339 340 342 341 340 340 338 336 335 336 336 336 335 333 332 329 325 329
332 339 345 347 347 346 343 339 338 342 346 346 341 341 338 337 338 341 340 339 338 341 343 341 338 336 338 339 340 342 342 342 341 341 340 339 338 337 335 334 332 331 330 328 326 325 322 320 324
331 334 340 341 346 346 341 345 343 346 347 341 340 344 343 338 338 341 340 340 341 340 340 337 336 338 339 339 341 343 343 342 342 340 338 337 335 334 332 330 328 326 322 319 314 314 314 313 315
327 334 338 339 342 342 337 335 341 338 340 340 341 338 337 339 340 341 341 341 340 340 339 336 336 337 339 342 342 342 342 341 339 337 335 331 328 325 322 321 321 318 317 312 310 309 307 308 308
325 331 335 334 334 336 329 326 341 341 338 340 340 337 337 338 337 340 340 339 338 339 338 336 336 337 341 342 342 341 340 337 333 331 328 326 324 320 314 312 315 315 314 310 309 308 308 308 307
317 327 328 328 327 327 325 324 329 340 341 340 341 338 340 339 336 338 338 337 336 337 337 335 335 338 341 341 340 338 335 331 330 328 327 324 319 308 307 310 310 309 309 309 309 308 308 308 307
314 314 315 323 325 326 324 320 332 341 341 341 341 336 338 339 339 336 336 335 334 334 332 332 334 339 341 340 338 332 329 329 330 330 328 324 309 306 309 309 309 309 308 309 308 308 308 308 308
313 313 314 314 315 315 316 318 319 336 337 338 340 339 339 339 338 335 335 334 333 333 333 332 336 340 340 338 337 330 326 327 329 329 328 321 312 308 309 309 310 309 309 309 309 309 308 308 308
312 315 314 314 314 314 315 317 319 323 334 338 339 340 338 338 338 337 335 333 332 332 333 335 338 339 339 336 335 333 325 325 324 327 322 319 312 310 310 310 310 310 310 309 309 309 309 308 308
315 316 314 314 313 314 315 315 316 319 333 334 336 337 339 338 338 337 336 333 332 332 333 334 338 340 339 336 336 335 327 321 321 320 319 317 310 310 310 310 310 310 310 309 309 310 310 309 309
317 315 316 314 313 314 314 313 313 314 316 328 332 338 340 338 338 338 336 334 332 332 333 335 338 340 339 336 338 330 322 319 316 313 312 310 310 310 310 310 310 309 309 309 310 310 310 310 309
316 317 316 316 315 315 314 314 313 312 313 316 317 330 336 338 337 334 337 334 333 333 333 337 338 339 339 338 338 324 321 320 316 313 311 310 310 310 310 310 310 309 309 309 309 310 310 310 310
321 321 320 320 317 317 315 313 312 311 312 313 315 318 330 337 338 336 337 334 334 334 335 338 338 339 339 335 326 322 319 318 317 313 311 310 310 310 310 310 309 309 309 309 309 309 309 309 310
319 320 320 319 319 317 317 315 312 311 310 310 311 314 322 330 336 337 336 334 335 335 337 338 338 338 336 327 321 318 319 318 321 314 311 310 310 310 310 310 309 309 309 309 309 309 310 310 310
321 321 321 318 317 318 317 315 312 311 311 310 311 314 319 327 331 335 335 335 335 336 337 337 337 336 330 326 322 321 323 320 318 314 311 310 310 310 310 310 310 309 309 309 310 310 310 309 310
322 322 321 322 320 316 315 317 313 311 310 310 310 313 317 322 337 338 335 335 335 338 338 336 336 334 330 327 326 325 323 322 321 315 311 310 310 310 310 310 310 310 310 310 310 310 310 310 310
324 321 323 324 324 323 314 320 314 311 310 311 316 317 326 335 338 337 336 335 336 339 339 336 332 331 331 330 328 329 327 324 324 316 311 310 310 309 310 310 310 310 310 310 309 310 311 311 310
323 323 324 323 323 322 321 319 314 313 317 321 319 320 321 333 338 338 336 336 336 337 339 334 332 330 331 333 331 330 330 327 324 314 311 310 309 309 309 310 310 310 310 310 310 310 310 310 310
321 325 322 321 322 323 323 318 315 323 323 323 323 322 321 330 332 336 337 336 336 336 337 333 332 332 333 332 329 331 331 329 314 312 312 310 309 309 309 310 310 310 309 310 310 310 309 308 308
323 324 325 319 325 327 322 322 316 322 323 324 324 323 324 323 328 333 334 333 335 337 336 333 334 332 331 328 328 331 327 317 314 313 312 309 309 310 310 310 309 309 309 309 309 308 308 307 306
324 325 326 324 328 325 323 326 327 319 321 323 321 322 325 325 326 329 334 333 334 337 337 336 335 332 330 327 330 328 318 318 315 315 312 310 310 310 310 309 309 309 309 309 308 307 305 304 303
323 326 321 322 322 322 325 324 322 324 324 324 324 322 323 324 325 326 327 330 334 335 334 333 331 330 329 329 325 321 319 315 314 312 312 311 310 309 309 309 309 308 306 305 303 302 302 301 300
322 320 327 325 328 321 323 320 322 328 326 324 326 325 322 322 322 323 323 322 327 330 329 331 330 328 327 323 319 316 314 313 313 312 310 310 310 308 307 307 306 304 302 301 301 300 299 299 298
314 317 326 323 327 329 322 319 316 316 318 316 321 324 319 317 315 311 309 310 315 319 320 317 320 319 317 311 311 311 310 310 310 310 309 308 307 306 305 303 302 302 301 300 299 298 298 297 297
311 314 322 324 326 326 324 321 311 312 313 314 313 313 312 312 311 308 307 307 307 309 311 310 311 311 311 310 310 309 308 308 307 306 305 304 304 302 302 301 300 300 299 298 298 297 297 297 297
Wind_Speed
5 2 1 1 3 3 4 6 3 9 7 5 6 7 9 4 4 4 9 16 31 32 28 26 24 21 20 19 20 19 19 19 18 17 16 15 15 15 15 15 14 14 14 16 17 18 19 20 22
5 1 1 1 3 1 5 4 6 10 6 2 9 5 4 3 3 9 15 28 33 32 27 26 24 21 18 18 18 18 17 17 16 15 15 15 16 16 16 15 15 15 15 18 18 17 18 20 20
6 3 3 3 3 6 5 3 2 9 4 4 4 6 6 8 5 18 14 35 35 32 28 25 22 20 20 18 17 17 17 17 17 17 17 16 16 17 16 16 16 16 16 17 17 17 18 20 21
1 2 2 3 9 6 7 3 9 9 4 11 6 6 4 5 19 16 35 34 36 33 30 26 22 19 19 19 18 17 18 17 18 18 18 17 17 17 17 17 17 17 17 17 16 17 19 23 24
2 2 2 4 8 5 9 4 4 6 3 6 4 6 4 7 17 34 35 33 36 33 29 25 22 19 19 20 19 18 18 18 19 20 19 18 18 17 16 17 16 17 16 16 15 17 19 21 21
2 1 2 7 9 4 4 3 3 4 2 1 6 5 3 8 32 35 34 35 34 33 28 24 22 22 21 21 20 19 18 19 19 21 19 17 17 16 16 16 16 17 17 16 17 17 18 19 20
4 1 4 3 3 4 3 3 3 1 1 2 3 2 2 2 23 37 37 34 35 33 29 25 25 24 22 21 21 20 20 18 20 20 19 18 17 16 15 15 15 16 17 16 16 17 17 18 19
4 3 3 4 6 6 4 3 3 1 3 4 2 3 4 6 16 33 36 35 34 33 31 29 27 25 24 22 22 19 19 19 20 19 18 18 17 15 14 14 14 15 16 17 18 19 17 18 16
2 2 4 4 2 3 3 2 3 2 1 2 5 4 5 21 21 25 29 27 29 30 32 30 29 27 26 23 22 21 22 22 20 18 18 17 15 15 15 14 14 15 16 17 18 18 18 16 16
2 3 4 3 5 5 7 3 3 2 1 3 4 4 14 24 22 22 22 24 25 29 32 31 30 29 27 23 24 26 23 22 21 19 17 16 14 13 16 17 18 16 15 16 17 17 17 15 16
3 6 2 4 8 9 13 10 5 6 4 8 10 9 8 14 16 22 22 25 28 36 33 32 31 30 29 27 26 23 22 23 22 20 19 16 13 15 21 22 19 18 17 18 17 18 18 16 15
5 8 7 5 8 9 12 7 4 8 7 9 8 9 15 16 14 16 23 25 26 34 36 34 34 33 30 29 28 24 23 26 24 20 18 17 17 20 20 19 18 19 18 18 18 18 16 15 15
4 3 7 6 8 6 7 6 5 7 5 5 5 12 18 18 17 7 15 22 26 29 33 39 38 35 31 30 29 27 25 24 23 19 22 18 17 20 19 16 17 16 16 15 15 16 15 14 13
5 8 8 5 8 5 6 7 2 4 7 6 7 9 13 17 25 24 24 28 33 33 35 39 39 37 33 32 32 30 26 23 22 23 22 20 15 19 20 17 16 16 15 14 14 13 12 13 11
7 6 7 7 5 4 3 14 3 7 12 13 13 11 15 20 27 35 49 35 40 38 41 35 38 37 36 34 33 30 28 26 25 24 22 20 16 18 21 19 17 16 14 13 13 12 12 12 10
4 3 4 7 5 4 6 6 10 9 6 10 10 13 17 19 26 40 39 35 37 37 39 38 35 39 38 36 34 33 34 30 25 24 20 18 18 18 20 19 18 16 15 13 12 11 9 9 8
3 5 6 6 4 4 5 4 7 9 7 10 10 11 15 19 22 26 31 33 36 37 39 36 37 42 41 38 38 38 34 29 24 21 20 20 22 21 20 20 18 17 14 12 10 8 7 6 5
6 7 7 7 4 4 10 7 7 9 6 10 10 9 14 19 23 26 31 34 36 36 36 39 44 44 45 42 42 39 33 25 23 20 21 22 21 22 20 20 19 16 14 11 9 8 6 4 2
6 5 9 9 7 7 11 10 8 9 6 9 9 9 10 16 22 24 31 38 39 37 37 47 47 46 45 45 40 36 33 28 23 23 21 21 23 22 22 22 18 15 14 12 9 8 6 3 2
7 7 11 8 5 7 9 16 7 7 8 8 9 8 12 6 8 14 27 34 36 37 44 44 47 49 45 43 37 34 35 30 26 21 21 22 23 23 22 21 18 16 15 13 11 9 7 4 1
5 7 6 11 5 5 5 15 5 6 6 6 9 7 11 9 11 15 21 33 34 32 37 37 43 45 44 42 38 28 29 24 20 20 22 23 23 23 22 20 18 17 15 13 12 10 8 6 5
8 6 12 14 7 6 2 11 4 6 9 5 8 9 8 7 12 16 20 22 25 26 28 30 38 42 41 42 36 34 28 25 25 31 27 24 22 23 21 20 18 18 16 13 11 10 10 9 8
10 12 8 12 13 4 5 3 6 4 5 7 9 9 9 9 18 19 20 30 36 28 17 26 32 32 35 35 34 34 29 27 25 29 25 23 22 21 21 19 17 16 15 14 13 12 11 11 10
13 6 13 3 1 3 7 4 5 4 8 11 13 10 9 6 11 13 20 28 28 31 27 28 28 25 26 31 30 30 24 22 22 27 25 25 24 22 19 18 17 15 13 12 13 12 10 8 7
5 6 4 5 4 3 11 5 5 7 10 7 13 10 7 8 0 8 14 15 21 26 24 27 28 21 27 27 27 25 23 24 26 26 25 25 23 21 21 18 15 14 13 12 11 9 8 6 5
4 3 1 3 5 5 5 3 5 13 8 7 11 10 12 13 9 10 9 17 18 19 21 22 24 22 23 22 30 25 20 19 25 23 24 24 21 19 17 17 15 13 11 10 8 7 5 3 2
3 4 2 1 3 4 2 2 3 4 9 10 13 14 11 10 9 12 11 12 10 13 17 18 20 22 25 25 20 19 18 25 22 20 19 21 19 18 18 17 15 12 8 7 5 3 2 3 4
1 6 1 2 5 5 6 4 5 4 4 7 5 7 10 6 7 8 7 13 19 18 21 22 22 22 22 20 19 18 18 20 18 19 20 19 19 19 16 13 11 9 7 4 3 2 2 3 4
3 3 1 4 1 3 4 4 6 4 0 1 6 7 6 6 7 8 8 16 20 22 24 24 24 23 24 23 24 24 23 22 21 21 20 21 18 15 11 9 8 6 4 3 3 2 2 4 6
4 3 3 3 6 0 1 4 5 5 6 6 7 8 4 3 9 9 12 16 20 21 22 23 24 26 24 24 25 24 23 22 21 20 16 12 11 9 6 5 4 3 3 4 4 5 6 9 11
Wind_Direction
271 268 323 12 45 65 255 253 320 315 340 295 132 127 134 76 150 200 148 160 161 154 156 155 148 144 141 137 134 127 122 121 117 114 115 110 105 100 98 95 94 92 90 98 89 81 76 68 67
261 210 128 83 114 167 266 238 239 249 221 248 87 107 87 112 110 125 133 162 159 152 157 156 149 149 145 144 139 137 134 128 125 119 116 112 107 104 102 99 97 96 94 103 96 84 76 69 72
276 192 106 149 196 192 239 227 325 335 55 277 73 57 132 147 102 150 161 156 154 154 159 157 150 146 144 144 144 140 136 134 130 123 118 113 110 108 104 100 99 100 97 96 95 88 78 68 85
275 34 9 174 233 250 234 269 358 340 333 31 32 56 42 268 143 158 154 157 155 155 159 154 148 150 145 142 142 140 136 134 130 125 120 118 116 111 105 101 99 99 97 98 92 90 82 73 97
205 83 216 232 245 258 264 289 283 266 310 12 355 354 36 137 138 148 152 156 157 154 158 157 153 153 148 142 140 139 137 135 131 128 125 117 118 112 106 103 101 99 100 97 95 91 88 83 88
334 126 187 228 246 253 270 281 227 209 345 90 15 89 304 166 139 149 152 157 162 159 161 158 155 152 147 144 142 141 141 138 137 133 124 120 117 113 107 103 101 99 97 94 94 92 90 85 89
150 155 232 220 242 273 304 126 106 157 324 80 179 61 54 233 149 154 157 157 159 164 162 159 155 151 149 147 145 146 146 144 137 128 126 124 121 118 111 106 103 101 98 95 95 96 90 87 89
155 141 256 240 243 270 360 52 153 216 202 170 288 144 92 257 150 148 154 154 155 160 165 160 157 155 153 151 150 149 148 144 136 132 130 128 124 120 116 113 109 105 103 99 95 96 89 94 94
141 217 217 219 227 304 24 15 341 330 234 194 167 162 158 178 147 142 142 146 151 162 165 162 159 158 155 155 149 144 143 143 144 137 137 137 132 128 124 120 115 111 109 106 102 97 97 103 96
176 221 239 223 268 294 303 48 207 128 242 286 280 182 145 149 156 157 157 152 158 163 167 165 162 160 158 155 149 148 149 150 149 148 144 134 129 127 125 118 113 110 105 107 108 104 100 101 95
257 244 281 291 299 288 296 305 221 169 213 219 207 183 136 157 186 173 171 165 167 169 167 170 166 164 161 160 157 157 156 154 151 150 147 138 129 134 129 124 124 119 113 106 107 106 102 95 92
306 283 263 276 272 280 284 291 213 195 244 216 211 184 170 186 196 189 170 173 170 169 172 172 171 169 169 164 164 159 160 159 159 158 163 150 136 139 135 130 126 121 120 114 108 105 102 97 90
219 281 323 301 296 260 270 277 260 231 210 185 142 162 169 168 152 217 200 181 176 174 176 174 174 175 174 170 167 162 161 167 170 169 169 163 146 147 144 138 134 131 127 123 116 111 106 104 96
295 298 292 299 292 274 274 274 241 262 166 203 182 189 166 168 170 168 226 188 182 180 181 179 178 177 176 173 171 169 167 172 181 178 173 171 161 154 154 147 144 139 138 132 125 120 119 117 109
267 300 321 277 286 273 261 274 217 194 174 206 211 210 186 190 178 181 200 197 185 181 183 180 181 180 179 177 176 175 176 173 170 174 175 175 174 164 160 155 149 149 147 144 137 128 115 127 120
323 15 1 298 345 281 158 295 297 282 276 243 205 198 200 199 197 201 199 192 183 177 180 181 181 184 181 179 180 178 175 173 175 171 172 181 181 173 168 164 161 158 151 152 146 141 138 127 115
345 267 279 294 337 278 182 274 296 304 276 255 224 195 211 211 213 196 196 190 176 177 177 177 180 184 183 181 180 179 178 176 177 178 178 178 179 180 176 172 168 165 161 166 158 146 144 135 114
285 293 270 277 293 285 280 253 257 285 290 275 263 221 195 216 213 199 198 184 179 172 172 176 182 187 184 180 178 174 173 172 174 180 182 180 183 182 185 178 173 172 174 171 167 168 148 142 119
277 279 272 288 274 276 276 277 260 277 284 279 274 245 220 208 218 191 180 179 177 171 172 177 176 177 182 175 171 167 165 172 178 184 189 191 184 186 187 180 182 183 185 182 184 179 169 163 133
305 306 297 286 264 290 284 282 245 246 260 238 258 237 247 183 181 160 173 174 175 175 176 178 177 177 176 175 171 173 174 176 177 187 192 195 188 186 188 192 190 188 189 189 192 192 190 184 152
293 269 272 280 282 268 278 280 284 267 267 266 278 257 232 216 153 157 166 175 176 180 177 177 180 179 177 179 179 174 172 171 178 189 198 195 195 195 196 193 192 193 194 193 199 212 219 202 195
306 250 281 285 295 280 127 288 271 273 285 295 330 345 258 161 150 159 167 172 176 186 185 178 172 178 182 185 183 182 172 168 194 188 196 201 197 197 194 192 195 200 204 207 217 224 224 227 221
263 299 278 291 284 344 277 240 281 300 303 330 320 317 324 192 154 161 167 166 172 218 188 177 174 179 186 190 194 188 179 192 201 188 190 204 196 196 197 199 201 202 208 214 215 219 223 226 234
283 314 329 346 74 262 334 241 303 28 317 314 320 304 310 191 179 169 164 170 180 184 188 174 173 181 195 201 194 186 186 201 198 189 189 198 195 194 196 196 202 207 213 207 206 208 206 202 211
20 359 319 7 31 301 317 321 268 340 344 310 314 320 35 47 298 145 145 154 170 172 170 168 178 193 205 199 194 188 202 196 196 189 193 191 188 189 192 196 203 209 204 199 194 198 198 196 199
40 93 40 320 335 297 342 321 322 312 318 346 15 34 54 49 49 71 134 160 166 172 174 174 181 186 184 190 198 191 195 209 203 194 196 200 193 191 192 196 186 182 181 191 191 205 204 211 239
333 22 124 192 236 311 285 254 292 347 24 12 28 39 36 59 53 66 67 86 137 146 146 144 151 151 172 180 185 184 199 197 201 193 197 200 194 187 180 180 178 175 177 191 190 196 203 252 272
294 154 311 63 352 350 322 30 349 42 348 3 37 40 28 6 66 66 63 77 102 119 119 137 145 151 153 157 169 175 181 184 183 188 192 186 171 160 157 158 168 162 177 170 184 200 218 252 272
329 333 41 124 307 340 317 346 10 13 171 191 62 22 38 357 63 62 56 76 100 106 114 122 133 140 141 136 138 139 143 147 147 146 143 144 146 150 154 156 163 172 199 217 240 243 270 288 294
305 305 104 82 304 130 142 303 27 23 22 53 63 101 128 107 79 73 70 73 81 96 107 108 117 125 127 129 127 124 125 126 126 126 129 132 136 138 148 170 197 206 208 234 246 260 276 291 296